MAYA-5

导读 | 豆包AI

MAYA-5(玛雅五号)是菲律宾(PH)开发的立方体卫星,作为技术演示与教育平台,隶属于菲律宾空间技术发展项目STAMINA4Space,由菲律宾大学联合日本九州理工学院共同研发。卫星重约1.15公斤,运行在400公里高度近地轨道,通过存储转发机制开展远程数据收集试验,旨在验证本土卫星组件应用,培育菲律宾空间技术能力,标志着菲律宾在自主航天探索领域迈出重要一步。

基本信息
目录编号:
57419
目录名称:
MAYA-5
国际标识:
1998-067VW
轨道中心:
EARTH
卫星名称:
MAYA-5
卫星全名:
--
卫星状态:
已陨落 最后检测时间 2023-12-08
发射日期:
1998-11-20 UTC
国别 :
(PH)
星等 :
--
轨道信息
数据来源 国际轨道数据
星历时间: 2023-12-06T08:50:50+0800
轨道信息已过期882天
半长轴: 6568.109km
偏心率: 0.0007717
轨道倾角: 51.610°
近地点辐角 257.607°
升交点赤经 180.852°
平近点角 102.409°
近地点: 184.905km
远地点: 195.043km
周期: 88.292分钟
每日圈数: 16.309562
详细信息
使用方式:
暂无